Location: El Álamo
(40.2307°N, 3.9945°W)
Time: 01:00:15
(UTC+00:00)

Cosmos 1825 Rocket - Pass Details

Date: 19 May 2025
Orbit: 597 x 624 km, 82.5° (Epoch: 24 June)

Event Time Altitude Azimuth Distance (km) Brightness Sun altitude
Rises 20:37:29 0° 349° (N) 2,859 7.8 -11.8°
Reaches altitude 10° 20:39:42 10° 348° (NNW) 1,949 6.9 -12.1°
Maximum altitude 20:43:59 70° 265° (W) 638 3.7 -12.7°
Drops below altitude 10° 20:48:13 10° 182° (S) 1,928 5.7 -13.3°
Enters shadow 20:48:31 - 181° (S) 2,044 5.8 -13.4°
